Year,Month,Day,Hour,Minute,Value (Times are PST for temperature in C)
2011,09,23,00,00,16.10
2011,09,23,00,01,16.10
2011,09,23,00,02,16.10
2011,09,23,00,03,16.10
2011,09,23,00,04,16.10
2011,09,23,00,05,16.10
2011,09,23,00,06,16.10
2011,09,23,00,07,16.10
2011,09,23,00,08,16.10
2011,09,23,00,09,16.10
2011,09,23,00,10,16.10
2011,09,23,00,11,16.10
2011,09,23,00,12,16.10
2011,09,23,00,13,16.10
2011,09,23,00,14,16.10
2011,09,23,00,15,16.10
2011,09,23,00,16,16.10
2011,09,23,00,17,16.10
2011,09,23,00,18,16.10
2011,09,23,00,19,16.10
2011,09,23,00,20,16.10
2011,09,23,00,21,16.10
2011,09,23,00,22,16.10
2011,09,23,00,23,16.10
2011,09,23,00,24,16.10
2011,09,23,00,25,16.10
2011,09,23,00,26,16.10
2011,09,23,00,27,16.10
2011,09,23,00,28,16.10
2011,09,23,00,29,16.10
2011,09,23,00,30,16.10
2011,09,23,00,31,16.10
2011,09,23,00,32,16.10
2011,09,23,00,33,16.10
2011,09,23,00,34,16.10
2011,09,23,00,35,16.10
2011,09,23,00,36,16.10
2011,09,23,00,37,16.10
2011,09,23,00,38,16.10
2011,09,23,00,39,16.10
2011,09,23,00,40,16.10
2011,09,23,00,41,16.10
2011,09,23,00,42,16.10
2011,09,23,00,43,16.10
2011,09,23,00,44,16.10
2011,09,23,00,45,16.10
2011,09,23,00,46,16.10
2011,09,23,00,47,16.10
2011,09,23,00,48,16.10
2011,09,23,00,49,16.10
2011,09,23,00,50,16.10
2011,09,23,00,51,16.10
2011,09,23,00,52,16.10
2011,09,23,00,53,16.10
2011,09,23,00,54,16.10
2011,09,23,00,55,16.10
2011,09,23,00,56,16.10
2011,09,23,00,57,16.10
2011,09,23,00,58,16.00
2011,09,23,00,59,16.00
2011,09,23,01,00,16.00
2011,09,23,01,01,16.00
2011,09,23,01,02,16.00
2011,09,23,01,03,16.00
2011,09,23,01,04,16.00
2011,09,23,01,05,16.00
2011,09,23,01,06,16.00
2011,09,23,01,07,16.00
2011,09,23,01,08,16.00
2011,09,23,01,09,16.10
2011,09,23,01,10,16.10
2011,09,23,01,11,16.10
2011,09,23,01,12,16.10
2011,09,23,01,13,16.10
2011,09,23,01,14,16.10
2011,09,23,01,15,16.10
2011,09,23,01,16,16.10
2011,09,23,01,17,16.10
2011,09,23,01,18,16.10
2011,09,23,01,19,16.10
2011,09,23,01,20,16.10
2011,09,23,01,21,16.10
2011,09,23,01,22,16.20
2011,09,23,01,23,16.20
2011,09,23,01,24,16.20
2011,09,23,01,25,16.20
2011,09,23,01,26,16.20
2011,09,23,01,27,16.30
2011,09,23,01,28,16.30
2011,09,23,01,29,16.30
2011,09,23,01,30,16.30
2011,09,23,01,31,16.30
2011,09,23,01,32,16.30
2011,09,23,01,33,16.30
2011,09,23,01,34,16.30
2011,09,23,01,35,16.30
2011,09,23,01,36,16.30
2011,09,23,01,37,16.30
2011,09,23,01,38,16.30
2011,09,23,01,39,16.20
2011,09,23,01,40,16.20
2011,09,23,01,41,16.20
2011,09,23,01,42,16.20
2011,09,23,01,43,16.20
2011,09,23,01,44,16.20
2011,09,23,01,45,16.20
2011,09,23,01,46,16.20
2011,09,23,01,47,16.20
2011,09,23,01,48,16.20
2011,09,23,01,49,16.20
2011,09,23,01,50,16.20
2011,09,23,01,51,16.20
2011,09,23,01,52,16.20
2011,09,23,01,53,16.20
2011,09,23,01,54,16.20
2011,09,23,01,55,16.20
2011,09,23,01,56,16.20
2011,09,23,01,57,16.20
2011,09,23,01,58,16.20
2011,09,23,01,59,16.20
2011,09,23,02,00,16.20
2011,09,23,02,01,16.10
2011,09,23,02,02,16.10
2011,09,23,02,03,16.10
2011,09,23,02,04,16.10
2011,09,23,02,05,16.10
2011,09,23,02,06,16.10
2011,09,23,02,07,16.10
2011,09,23,02,08,16.10
2011,09,23,02,09,16.10
2011,09,23,02,10,16.10
2011,09,23,02,11,16.10
2011,09,23,02,12,16.10
2011,09,23,02,13,16.10
2011,09,23,02,14,16.00
2011,09,23,02,15,16.10
2011,09,23,02,16,16.00
2011,09,23,02,17,16.00
2011,09,23,02,18,16.00
2011,09,23,02,19,16.00
2011,09,23,02,20,16.00
2011,09,23,02,21,16.00
2011,09,23,02,22,16.00
2011,09,23,02,23,16.00
2011,09,23,02,24,16.00
2011,09,23,02,25,16.00
2011,09,23,02,26,15.90
2011,09,23,02,27,15.90
2011,09,23,02,28,15.90
2011,09,23,02,29,15.90
2011,09,23,02,30,15.90
2011,09,23,02,31,15.90
2011,09,23,02,32,15.90
2011,09,23,02,33,15.90
2011,09,23,02,34,15.90
2011,09,23,02,35,15.90
2011,09,23,02,36,15.90
2011,09,23,02,37,15.90
2011,09,23,02,38,15.90
2011,09,23,02,39,15.90
2011,09,23,02,40,15.90
2011,09,23,02,41,15.90
2011,09,23,02,42,15.90
2011,09,23,02,43,15.90
2011,09,23,02,44,15.90
2011,09,23,02,45,15.90
2011,09,23,02,46,15.90
2011,09,23,02,47,15.90
2011,09,23,02,48,15.90
2011,09,23,02,49,15.90
2011,09,23,02,50,15.90
2011,09,23,02,51,15.80
2011,09,23,02,52,15.80
2011,09,23,02,53,15.80
2011,09,23,02,54,15.80
2011,09,23,02,55,15.80
2011,09,23,02,56,15.80
2011,09,23,02,57,15.80
2011,09,23,02,58,15.80
2011,09,23,02,59,15.80
2011,09,23,03,00,15.80
2011,09,23,03,01,15.80
2011,09,23,03,02,15.80
2011,09,23,03,03,15.80
2011,09,23,03,04,15.80
2011,09,23,03,05,15.80
2011,09,23,03,06,15.80
2011,09,23,03,07,15.80
2011,09,23,03,08,15.80
2011,09,23,03,09,15.80
2011,09,23,03,10,15.80
2011,09,23,03,11,15.80
2011,09,23,03,12,15.70
2011,09,23,03,13,15.70
2011,09,23,03,14,15.70
2011,09,23,03,15,15.70
2011,09,23,03,16,15.70
2011,09,23,03,17,15.70
2011,09,23,03,18,15.70
2011,09,23,03,19,15.70
2011,09,23,03,20,15.70
2011,09,23,03,21,15.70
2011,09,23,03,22,15.70
2011,09,23,03,23,15.70
2011,09,23,03,24,15.70
2011,09,23,03,25,15.70
2011,09,23,03,26,15.70
2011,09,23,03,27,15.60
2011,09,23,03,28,15.60
2011,09,23,03,29,15.60
2011,09,23,03,30,15.60
2011,09,23,03,31,15.60
2011,09,23,03,32,15.60
2011,09,23,03,33,15.60
2011,09,23,03,34,15.60
2011,09,23,03,35,15.60
2011,09,23,03,36,15.60
2011,09,23,03,37,15.60
2011,09,23,03,38,15.60
2011,09,23,03,39,15.60
2011,09,23,03,40,15.60
2011,09,23,03,41,15.60
2011,09,23,03,42,15.60
2011,09,23,03,43,15.50
2011,09,23,03,44,15.50
2011,09,23,03,45,15.50
2011,09,23,03,46,15.50
2011,09,23,03,47,15.50
2011,09,23,03,48,15.50
2011,09,23,03,49,15.50
2011,09,23,03,50,15.50
2011,09,23,03,51,15.50
2011,09,23,03,52,15.50
2011,09,23,03,53,15.50
2011,09,23,03,54,15.50
2011,09,23,03,55,15.50
2011,09,23,03,56,15.50
2011,09,23,03,57,15.50
2011,09,23,03,58,15.40
2011,09,23,03,59,15.40
2011,09,23,04,00,15.40
2011,09,23,04,01,15.40
2011,09,23,04,02,15.40
2011,09,23,04,03,15.40
2011,09,23,04,04,15.40
2011,09,23,04,05,15.40
2011,09,23,04,06,15.40
2011,09,23,04,07,15.40
2011,09,23,04,08,15.40
2011,09,23,04,09,15.40
2011,09,23,04,10,15.40
2011,09,23,04,11,15.40
2011,09,23,04,12,15.30
2011,09,23,04,13,15.30
2011,09,23,04,14,15.30
2011,09,23,04,15,15.30
2011,09,23,04,16,15.30
2011,09,23,04,17,15.30
2011,09,23,04,18,15.30
2011,09,23,04,19,15.30
2011,09,23,04,20,15.30
2011,09,23,04,21,15.30
2011,09,23,04,22,15.30
2011,09,23,04,23,15.30
2011,09,23,04,24,15.30
2011,09,23,04,25,15.30
2011,09,23,04,26,15.30
2011,09,23,04,27,15.30
2011,09,23,04,28,15.30
2011,09,23,04,29,15.20
2011,09,23,04,30,15.20
2011,09,23,04,31,15.20
2011,09,23,04,32,15.20
2011,09,23,04,33,15.20
2011,09,23,04,34,15.20
2011,09,23,04,35,15.20
2011,09,23,04,36,15.20
2011,09,23,04,37,15.20
2011,09,23,04,38,15.20
2011,09,23,04,39,15.20
2011,09,23,04,40,15.20
2011,09,23,04,41,15.20
2011,09,23,04,42,15.20
2011,09,23,04,43,15.20
2011,09,23,04,44,15.10
2011,09,23,04,45,15.10
2011,09,23,04,46,15.10
2011,09,23,04,47,15.10
2011,09,23,04,48,15.10
2011,09,23,04,49,15.10
2011,09,23,04,50,15.10
2011,09,23,04,51,15.10
2011,09,23,04,52,15.10
2011,09,23,04,53,15.10
2011,09,23,04,54,15.10
2011,09,23,04,55,15.10
2011,09,23,04,56,15.00
2011,09,23,04,57,15.00
2011,09,23,04,58,15.00
2011,09,23,04,59,15.00
2011,09,23,05,00,15.00
2011,09,23,05,01,15.00
2011,09,23,05,02,14.90
2011,09,23,05,03,14.90
2011,09,23,05,04,14.90
2011,09,23,05,05,14.90
2011,09,23,05,06,14.90
2011,09,23,05,07,14.90
2011,09,23,05,08,14.90
2011,09,23,05,09,14.90
2011,09,23,05,10,14.90
2011,09,23,05,11,14.90
2011,09,23,05,12,14.80
2011,09,23,05,13,14.80
2011,09,23,05,14,14.80
2011,09,23,05,15,14.80
2011,09,23,05,16,14.80
2011,09,23,05,17,14.80
2011,09,23,05,18,14.80
2011,09,23,05,19,14.80
2011,09,23,05,20,14.80
2011,09,23,05,21,14.80
2011,09,23,05,22,14.80
2011,09,23,05,23,14.80
2011,09,23,05,24,14.80
2011,09,23,05,25,14.80
2011,09,23,05,26,14.80
2011,09,23,05,27,14.80
2011,09,23,05,28,14.80
2011,09,23,05,29,14.80
2011,09,23,05,30,14.80
2011,09,23,05,31,14.80
2011,09,23,05,32,14.80
2011,09,23,05,33,14.80
2011,09,23,05,34,14.70
2011,09,23,05,35,14.70
2011,09,23,05,36,14.70
2011,09,23,05,37,14.70
2011,09,23,05,38,14.70
2011,09,23,05,39,14.70
2011,09,23,05,40,14.70
2011,09,23,05,41,14.70
2011,09,23,05,42,14.70
2011,09,23,05,43,14.70
2011,09,23,05,44,14.70
2011,09,23,05,45,14.70
2011,09,23,05,46,14.70
2011,09,23,05,47,14.70
2011,09,23,05,48,14.70
2011,09,23,05,49,14.70
2011,09,23,05,50,14.60
2011,09,23,05,51,14.60
2011,09,23,05,52,14.60
2011,09,23,05,53,14.60
2011,09,23,05,54,14.60
2011,09,23,05,55,14.60
2011,09,23,05,56,14.60
2011,09,23,05,57,14.60
2011,09,23,05,58,14.60
2011,09,23,05,59,14.60
2011,09,23,06,00,14.60
2011,09,23,06,01,14.60
2011,09,23,06,02,14.60
2011,09,23,06,03,14.60
2011,09,23,06,04,14.50
2011,09,23,06,05,14.50
2011,09,23,06,06,14.50
2011,09,23,06,07,14.50
2011,09,23,06,08,14.50
2011,09,23,06,09,14.50
2011,09,23,06,10,14.50
2011,09,23,06,11,14.50
2011,09,23,06,12,14.50
2011,09,23,06,13,14.50
2011,09,23,06,14,14.50
2011,09,23,06,15,14.50
2011,09,23,06,16,14.50
2011,09,23,06,17,14.50
2011,09,23,06,18,14.50
2011,09,23,06,19,14.50
2011,09,23,06,20,14.50
2011,09,23,06,21,14.40
2011,09,23,06,22,14.40
2011,09,23,06,23,14.40
2011,09,23,06,24,14.40
2011,09,23,06,25,14.40
2011,09,23,06,26,14.40
2011,09,23,06,27,14.40
2011,09,23,06,28,14.40
2011,09,23,06,29,14.40
2011,09,23,06,30,14.40
2011,09,23,06,31,14.40
2011,09,23,06,32,14.40
2011,09,23,06,33,14.40
2011,09,23,06,34,14.40
2011,09,23,06,35,14.40
2011,09,23,06,36,14.30
2011,09,23,06,37,14.30
2011,09,23,06,38,14.30
2011,09,23,06,39,14.30
2011,09,23,06,40,14.30
2011,09,23,06,41,14.30
2011,09,23,06,42,14.30
2011,09,23,06,43,14.30
2011,09,23,06,44,14.20
2011,09,23,06,45,14.20
2011,09,23,06,46,14.20
2011,09,23,06,47,14.20
2011,09,23,06,48,14.20
2011,09,23,06,49,14.20
2011,09,23,06,50,14.10
2011,09,23,06,51,14.10
2011,09,23,06,52,14.10
2011,09,23,06,53,14.10
2011,09,23,06,54,14.10
2011,09,23,06,55,14.00
2011,09,23,06,56,14.00
2011,09,23,06,57,14.00
2011,09,23,06,58,14.00
2011,09,23,06,59,13.90
2011,09,23,07,00,13.90
2011,09,23,07,01,13.90
2011,09,23,07,02,13.90
2011,09,23,07,03,13.90
2011,09,23,07,04,13.90
2011,09,23,07,05,13.90
2011,09,23,07,06,13.90
2011,09,23,07,07,13.90
2011,09,23,07,08,13.90
2011,09,23,07,09,13.90
2011,09,23,07,10,13.90
2011,09,23,07,11,13.90
2011,09,23,07,12,13.90
2011,09,23,07,13,13.80
2011,09,23,07,14,13.80
2011,09,23,07,15,13.80
2011,09,23,07,16,13.80
2011,09,23,07,17,13.80
2011,09,23,07,18,13.80
2011,09,23,07,19,13.80
2011,09,23,07,20,13.80
2011,09,23,07,21,13.80
2011,09,23,07,22,13.80
2011,09,23,07,23,13.80
2011,09,23,07,24,13.80
2011,09,23,07,25,13.80
2011,09,23,07,26,13.80
2011,09,23,07,27,13.80
2011,09,23,07,28,13.80
2011,09,23,07,29,13.80
2011,09,23,07,30,13.80
2011,09,23,07,31,13.80
2011,09,23,07,32,13.80
2011,09,23,07,33,13.80
2011,09,23,07,34,13.80
2011,09,23,07,35,13.90
2011,09,23,07,36,13.90
2011,09,23,07,37,13.90
2011,09,23,07,38,13.90
2011,09,23,07,39,13.90
2011,09,23,07,40,13.90
2011,09,23,07,41,13.90
2011,09,23,07,42,13.90
2011,09,23,07,43,13.90
2011,09,23,07,44,13.90
2011,09,23,07,45,13.90
2011,09,23,07,46,13.90
2011,09,23,07,47,14.00
2011,09,23,07,48,14.00
2011,09,23,07,49,14.00
2011,09,23,07,50,14.10
2011,09,23,07,51,14.10
2011,09,23,07,52,14.10
2011,09,23,07,53,14.10
2011,09,23,07,54,14.10
2011,09,23,07,55,14.20
2011,09,23,07,56,14.20
2011,09,23,07,57,14.20
2011,09,23,07,58,14.20
2011,09,23,07,59,14.30
2011,09,23,08,00,14.30
2011,09,23,08,01,14.30
2011,09,23,08,02,14.40
2011,09,23,08,03,14.40
2011,09,23,08,04,14.40
2011,09,23,08,05,14.40
2011,09,23,08,06,14.50
2011,09,23,08,07,14.50
2011,09,23,08,08,14.50
2011,09,23,08,09,14.60
2011,09,23,08,10,14.60
2011,09,23,08,11,14.60
2011,09,23,08,12,14.60
2011,09,23,08,13,14.60
2011,09,23,08,14,14.60
2011,09,23,08,15,14.70
2011,09,23,08,16,14.70
2011,09,23,08,17,14.70
2011,09,23,08,18,14.70
2011,09,23,08,19,14.70
2011,09,23,08,20,14.70
2011,09,23,08,21,14.70
2011,09,23,08,22,14.70
2011,09,23,08,23,14.70
2011,09,23,08,24,14.80
2011,09,23,08,25,14.80
2011,09,23,08,26,14.80
2011,09,23,08,27,14.80
2011,09,23,08,28,14.80
2011,09,23,08,29,14.80
2011,09,23,08,30,14.80
2011,09,23,08,31,14.80
2011,09,23,08,32,14.80
2011,09,23,08,33,14.90
2011,09,23,08,34,14.90
2011,09,23,08,35,14.90
2011,09,23,08,36,14.90
2011,09,23,08,37,14.90
2011,09,23,08,38,14.90
2011,09,23,08,39,15.00
2011,09,23,08,40,15.00
2011,09,23,08,41,15.00
2011,09,23,08,42,15.00
2011,09,23,08,43,15.10
2011,09,23,08,44,15.10
2011,09,23,08,45,15.10
2011,09,23,08,46,15.10
2011,09,23,08,47,15.10
2011,09,23,08,48,15.10
2011,09,23,08,49,15.10
2011,09,23,08,50,15.20
2011,09,23,08,51,15.20
2011,09,23,08,52,15.20
2011,09,23,08,53,15.20
2011,09,23,08,54,15.20
2011,09,23,08,55,15.20
2011,09,23,08,56,15.20
2011,09,23,08,57,15.20
2011,09,23,08,58,15.20
2011,09,23,08,59,15.30
2011,09,23,09,00,15.30
2011,09,23,09,01,15.30
2011,09,23,09,02,15.30
2011,09,23,09,03,15.30
2011,09,23,09,04,15.30
2011,09,23,09,05,15.30
2011,09,23,09,06,15.30
2011,09,23,09,07,15.30
2011,09,23,09,08,15.30
2011,09,23,09,09,15.30
2011,09,23,09,10,15.30
2011,09,23,09,11,15.30
2011,09,23,09,12,15.30
2011,09,23,09,13,15.30
2011,09,23,09,14,15.30
2011,09,23,09,15,15.30
2011,09,23,09,16,15.30
2011,09,23,09,17,15.30
2011,09,23,09,18,15.30
2011,09,23,09,19,15.30
2011,09,23,09,20,15.30
2011,09,23,09,21,15.30
2011,09,23,09,22,15.30
2011,09,23,09,23,15.30
2011,09,23,09,24,15.30
2011,09,23,09,25,15.30
2011,09,23,09,26,15.30
2011,09,23,09,27,15.30
2011,09,23,09,28,15.30
2011,09,23,09,29,15.30
2011,09,23,09,30,15.30
2011,09,23,09,31,15.30
2011,09,23,09,32,15.30
2011,09,23,09,33,15.30
2011,09,23,09,34,15.40
2011,09,23,09,35,15.40
2011,09,23,09,36,15.40
2011,09,23,09,37,15.40
2011,09,23,09,38,15.40
2011,09,23,09,39,15.40
2011,09,23,09,40,15.40
2011,09,23,09,41,15.40
2011,09,23,09,42,15.40
2011,09,23,09,43,15.40
2011,09,23,09,44,15.50
2011,09,23,09,45,15.50
2011,09,23,09,46,15.50
2011,09,23,09,47,15.50
2011,09,23,09,48,15.60
2011,09,23,09,49,15.60
2011,09,23,09,50,15.60
2011,09,23,09,51,15.60
2011,09,23,09,52,15.60
2011,09,23,09,53,15.60
2011,09,23,09,54,15.70
2011,09,23,09,55,15.70
2011,09,23,09,56,15.70
2011,09,23,09,57,15.70
2011,09,23,09,58,15.70
2011,09,23,09,59,15.80
2011,09,23,10,00,15.80
2011,09,23,10,01,15.80
2011,09,23,10,02,15.80
2011,09,23,10,03,15.80
2011,09,23,10,04,15.80
2011,09,23,10,05,15.80
2011,09,23,10,06,15.90
2011,09,23,10,07,15.90
2011,09,23,10,08,15.90
2011,09,23,10,09,15.90
2011,09,23,10,10,15.90
2011,09,23,10,11,15.90
2011,09,23,10,12,15.90
2011,09,23,10,13,15.90
2011,09,23,10,14,16.00
2011,09,23,10,15,16.00
2011,09,23,10,16,16.00
2011,09,23,10,17,16.00
2011,09,23,10,18,16.10
2011,09,23,10,19,16.10
2011,09,23,10,20,16.10
2011,09,23,10,21,16.20
2011,09,23,10,22,16.20
2011,09,23,10,23,16.20
2011,09,23,10,24,16.30
2011,09,23,10,25,16.30
2011,09,23,10,26,16.30
2011,09,23,10,27,16.40
2011,09,23,10,28,16.40
2011,09,23,10,29,16.40
2011,09,23,10,30,16.40
2011,09,23,10,31,16.50
2011,09,23,10,32,16.50
2011,09,23,10,33,16.50
2011,09,23,10,34,16.50
2011,09,23,10,35,16.50
2011,09,23,10,36,16.60
2011,09,23,10,37,16.60
2011,09,23,10,38,16.60
2011,09,23,10,39,16.60
2011,09,23,10,40,16.60
2011,09,23,10,41,16.60
2011,09,23,10,42,16.70
2011,09,23,10,43,16.70
2011,09,23,10,44,16.70
2011,09,23,10,45,16.70
2011,09,23,10,46,16.70
2011,09,23,10,47,16.70
2011,09,23,10,48,16.70
2011,09,23,10,49,16.80
2011,09,23,10,50,16.80
2011,09,23,10,51,16.80
2011,09,23,10,52,16.80
2011,09,23,10,53,16.80
2011,09,23,10,54,16.80
2011,09,23,10,55,16.90
2011,09,23,10,56,16.90
2011,09,23,10,57,16.90
2011,09,23,10,58,16.90
2011,09,23,10,59,17.00
2011,09,23,11,00,17.00
2011,09,23,11,01,17.00
2011,09,23,11,02,17.00
2011,09,23,11,03,17.10
2011,09,23,11,04,17.10
2011,09,23,11,05,17.10
2011,09,23,11,06,17.10
2011,09,23,11,07,17.20
2011,09,23,11,08,17.20
2011,09,23,11,09,17.20
2011,09,23,11,10,17.30
2011,09,23,11,11,17.30
2011,09,23,11,12,17.30
2011,09,23,11,13,17.30
2011,09,23,11,14,17.40
2011,09,23,11,15,17.40
2011,09,23,11,16,17.40
2011,09,23,11,17,17.50
2011,09,23,11,18,17.50
2011,09,23,11,19,17.60
2011,09,23,11,20,17.60
2011,09,23,11,21,17.70
2011,09,23,11,22,17.70
2011,09,23,11,23,17.80
2011,09,23,11,24,17.80
2011,09,23,11,25,17.80
2011,09,23,11,26,17.90
2011,09,23,11,27,17.90
2011,09,23,11,28,17.90
2011,09,23,11,29,18.00
2011,09,23,11,30,18.00
2011,09,23,11,31,18.10
2011,09,23,11,32,18.10
2011,09,23,11,33,18.20
2011,09,23,11,34,18.20
2011,09,23,11,35,18.30
2011,09,23,11,36,18.30
2011,09,23,11,37,18.40
2011,09,23,11,38,18.40
2011,09,23,11,39,18.50
2011,09,23,11,40,18.50
2011,09,23,11,41,18.60
2011,09,23,11,42,18.60
2011,09,23,11,43,18.70
2011,09,23,11,44,18.70
2011,09,23,11,45,18.80
2011,09,23,11,46,18.80
2011,09,23,11,47,18.90
2011,09,23,11,48,18.90
2011,09,23,11,49,18.90
2011,09,23,11,50,19.00
2011,09,23,11,51,19.10
2011,09,23,11,52,19.10
2011,09,23,11,53,19.10
2011,09,23,11,54,19.20
2011,09,23,11,55,19.20
2011,09,23,11,56,19.20
2011,09,23,11,57,19.20
2011,09,23,11,58,19.20
2011,09,23,11,59,19.20
2011,09,23,12,00,19.30
2011,09,23,12,01,19.30
2011,09,23,12,02,19.40
2011,09,23,12,03,19.40
2011,09,23,12,04,19.50
2011,09,23,12,05,19.60
2011,09,23,12,06,19.60
2011,09,23,12,07,19.70
2011,09,23,12,08,19.70
2011,09,23,12,09,19.80
2011,09,23,12,10,19.80
2011,09,23,12,11,19.90
2011,09,23,12,12,20.00
2011,09,23,12,13,20.00
2011,09,23,12,14,20.00
2011,09,23,12,15,20.10
2011,09,23,12,16,20.10
2011,09,23,12,17,20.20
2011,09,23,12,18,20.20
2011,09,23,12,19,20.30
2011,09,23,12,20,20.30
2011,09,23,12,21,20.40
2011,09,23,12,22,20.40
2011,09,23,12,23,20.40
2011,09,23,12,24,20.40
2011,09,23,12,25,20.40
2011,09,23,12,26,20.50
2011,09,23,12,27,20.50
2011,09,23,12,28,20.50
2011,09,23,12,29,20.50
2011,09,23,12,30,20.60
2011,09,23,12,31,20.60
2011,09,23,12,32,20.60
2011,09,23,12,33,20.50
2011,09,23,12,34,20.40
2011,09,23,12,35,20.40
2011,09,23,12,36,20.30
2011,09,23,12,37,20.30
2011,09,23,12,38,20.20
2011,09,23,12,39,20.20
2011,09,23,12,40,20.20
2011,09,23,12,41,20.20
2011,09,23,12,42,20.10
2011,09,23,12,43,20.10
2011,09,23,12,44,20.10
2011,09,23,12,45,20.10
2011,09,23,12,46,20.10
2011,09,23,12,47,20.10
2011,09,23,12,48,20.10
2011,09,23,12,49,20.10
2011,09,23,12,50,20.10
2011,09,23,12,51,20.00
2011,09,23,12,52,20.00
2011,09,23,12,53,20.00
2011,09,23,12,54,19.90
2011,09,23,12,55,19.90
2011,09,23,12,56,19.90
2011,09,23,12,57,19.90
2011,09,23,12,58,19.90
2011,09,23,12,59,19.80
2011,09,23,13,00,19.80
2011,09,23,13,01,19.80
2011,09,23,13,02,19.80
2011,09,23,13,03,19.80
2011,09,23,13,04,19.70
2011,09,23,13,05,19.70
2011,09,23,13,06,19.70
2011,09,23,13,07,19.70
2011,09,23,13,08,19.70
2011,09,23,13,09,19.70
2011,09,23,13,10,19.70
2011,09,23,13,11,19.70
2011,09,23,13,12,19.70
2011,09,23,13,13,19.70
2011,09,23,13,14,19.70
2011,09,23,13,15,19.70
2011,09,23,13,16,19.70
2011,09,23,13,17,19.70
2011,09,23,13,18,19.70
2011,09,23,13,19,19.70
2011,09,23,13,20,19.70
2011,09,23,13,21,19.70
2011,09,23,13,22,19.80
2011,09,23,13,23,19.80
2011,09,23,13,24,19.80
2011,09,23,13,25,19.80
2011,09,23,13,26,19.80
2011,09,23,13,27,19.80
2011,09,23,13,28,19.80
2011,09,23,13,29,19.90
2011,09,23,13,30,19.90
2011,09,23,13,31,19.90
2011,09,23,13,32,19.90
2011,09,23,13,33,20.00
2011,09,23,13,34,20.00
2011,09,23,13,35,20.00
2011,09,23,13,36,20.10
2011,09,23,13,37,20.10
2011,09,23,13,38,20.20
2011,09,23,13,39,20.30
2011,09,23,13,40,20.40
2011,09,23,13,41,20.40
2011,09,23,13,42,20.50
2011,09,23,13,43,20.60
2011,09,23,13,44,20.70
2011,09,23,13,45,20.80
2011,09,23,13,46,20.90
2011,09,23,13,47,20.90
2011,09,23,13,48,21.00
2011,09,23,13,49,21.00
2011,09,23,13,50,21.10
2011,09,23,13,51,21.20
2011,09,23,13,52,21.20
2011,09,23,13,53,21.20
2011,09,23,13,54,21.20
2011,09,23,13,55,21.20
2011,09,23,13,56,21.20
2011,09,23,13,57,21.10
2011,09,23,13,58,21.10
2011,09,23,13,59,21.00
2011,09,23,14,00,21.00
2011,09,23,14,01,20.90
2011,09,23,14,02,20.90
2011,09,23,14,03,20.90
2011,09,23,14,04,20.90
2011,09,23,14,05,20.90
2011,09,23,14,06,20.90
2011,09,23,14,07,20.90
2011,09,23,14,08,20.90
2011,09,23,14,09,20.90
2011,09,23,14,10,20.90
2011,09,23,14,11,20.90
2011,09,23,14,12,20.90
2011,09,23,14,13,20.90
2011,09,23,14,14,20.90
2011,09,23,14,15,20.80
2011,09,23,14,16,20.80
2011,09,23,14,17,20.70
2011,09,23,14,18,20.70
2011,09,23,14,19,20.60
2011,09,23,14,20,20.60
2011,09,23,14,21,20.50
2011,09,23,14,22,20.50
2011,09,23,14,23,20.40
2011,09,23,14,24,20.40
2011,09,23,14,25,20.40
2011,09,23,14,26,20.30
2011,09,23,14,27,20.30
2011,09,23,14,28,20.30
2011,09,23,14,29,20.30
2011,09,23,14,30,20.30
2011,09,23,14,31,20.30
2011,09,23,14,32,20.30
2011,09,23,14,33,20.30
2011,09,23,14,34,20.30
2011,09,23,14,35,20.30
2011,09,23,14,36,20.30
2011,09,23,14,37,20.40
2011,09,23,14,38,20.40
2011,09,23,14,39,20.40
2011,09,23,14,40,20.40
2011,09,23,14,41,20.40
2011,09,23,14,42,20.50
2011,09,23,14,43,20.50
2011,09,23,14,44,20.50
2011,09,23,14,45,20.50
2011,09,23,14,46,20.40
2011,09,23,14,47,20.40
2011,09,23,14,48,20.40
2011,09,23,14,49,20.40
2011,09,23,14,50,20.40
2011,09,23,14,51,20.40
2011,09,23,14,52,20.50
2011,09,23,14,53,20.50
2011,09,23,14,54,20.50
2011,09,23,14,55,20.50
2011,09,23,14,56,20.50
2011,09,23,14,57,20.50
2011,09,23,14,58,20.50
2011,09,23,14,59,20.50
2011,09,23,15,00,20.50
2011,09,23,15,01,20.60
2011,09,23,15,02,20.60
2011,09,23,15,03,20.60
2011,09,23,15,04,20.60
2011,09,23,15,05,20.60
2011,09,23,15,06,20.60
2011,09,23,15,07,20.60
2011,09,23,15,08,20.50
2011,09,23,15,09,20.50
2011,09,23,15,10,20.40
2011,09,23,15,11,20.40
2011,09,23,15,12,20.40
2011,09,23,15,13,20.30
2011,09,23,15,14,20.30
2011,09,23,15,15,20.30
2011,09,23,15,16,20.30
2011,09,23,15,17,20.20
2011,09,23,15,18,20.20
2011,09,23,15,19,20.20
2011,09,23,15,20,20.20
2011,09,23,15,21,20.20
2011,09,23,15,22,20.20
2011,09,23,15,23,20.20
2011,09,23,15,24,20.20
2011,09,23,15,25,20.20
2011,09,23,15,26,20.20
2011,09,23,15,27,20.20
2011,09,23,15,28,20.20
2011,09,23,15,29,20.20
2011,09,23,15,30,20.20
2011,09,23,15,31,20.20
2011,09,23,15,32,20.20
2011,09,23,15,33,20.20
2011,09,23,15,34,20.20
2011,09,23,15,35,20.30
2011,09,23,15,36,20.30
2011,09,23,15,37,20.30
2011,09,23,15,38,20.30
2011,09,23,15,39,20.30
2011,09,23,15,40,20.30
2011,09,23,15,41,20.30
2011,09,23,15,42,20.30
2011,09,23,15,43,20.30
2011,09,23,15,44,20.30
2011,09,23,15,45,20.40
2011,09,23,15,46,20.40
2011,09,23,15,47,20.40
2011,09,23,15,48,20.40
2011,09,23,15,49,20.40
2011,09,23,15,50,20.40
2011,09,23,15,51,20.40
2011,09,23,15,52,20.40
2011,09,23,15,53,20.40
2011,09,23,15,54,20.50
2011,09,23,15,55,20.50
2011,09,23,15,56,20.50
2011,09,23,15,57,20.60
2011,09,23,15,58,20.60
2011,09,23,15,59,20.60
2011,09,23,16,00,20.70
2011,09,23,16,01,20.70
2011,09,23,16,02,20.70
2011,09,23,16,03,20.70
2011,09,23,16,04,20.80
2011,09,23,16,05,20.80
2011,09,23,16,06,20.80
2011,09,23,16,07,20.80
2011,09,23,16,08,20.90
2011,09,23,16,09,20.90
2011,09,23,16,10,20.90
2011,09,23,16,11,20.90
2011,09,23,16,12,21.00
2011,09,23,16,13,21.00
2011,09,23,16,14,21.10
2011,09,23,16,15,21.10
2011,09,23,16,16,21.10
2011,09,23,16,17,21.20
2011,09,23,16,18,21.20
2011,09,23,16,19,21.20
2011,09,23,16,20,21.20
2011,09,23,16,21,21.30
2011,09,23,16,22,21.30
2011,09,23,16,23,21.30
2011,09,23,16,24,21.40
2011,09,23,16,25,21.40
2011,09,23,16,26,21.40
2011,09,23,16,27,21.50
2011,09,23,16,28,21.50
2011,09,23,16,29,21.50
2011,09,23,16,30,21.60
2011,09,23,16,31,21.60
2011,09,23,16,32,21.60
2011,09,23,16,33,21.60
2011,09,23,16,34,21.60
2011,09,23,16,35,21.50
2011,09,23,16,36,21.50
2011,09,23,16,37,21.50
2011,09,23,16,38,21.50
2011,09,23,16,39,21.50
2011,09,23,16,40,21.50
2011,09,23,16,41,21.50
2011,09,23,16,42,21.50
2011,09,23,16,43,21.50
2011,09,23,16,44,21.50
2011,09,23,16,45,21.50
2011,09,23,16,46,21.50
2011,09,23,16,47,21.50
2011,09,23,16,48,21.60
2011,09,23,16,49,21.60
2011,09,23,16,50,21.60
2011,09,23,16,51,21.60
2011,09,23,16,52,21.60
2011,09,23,16,53,21.60
2011,09,23,16,54,21.60
2011,09,23,16,55,21.60
2011,09,23,16,56,21.70
2011,09,23,16,57,21.70
2011,09,23,16,58,21.70
2011,09,23,16,59,21.80
2011,09,23,17,00,21.80
2011,09,23,17,01,21.80
2011,09,23,17,02,21.90
2011,09,23,17,03,21.90
2011,09,23,17,04,21.90
2011,09,23,17,05,22.00
2011,09,23,17,06,22.00
2011,09,23,17,07,22.00
2011,09,23,17,08,22.00
2011,09,23,17,09,22.10
2011,09,23,17,10,22.10
2011,09,23,17,11,22.10
2011,09,23,17,12,22.20
2011,09,23,17,13,22.20
2011,09,23,17,14,22.30
2011,09,23,17,15,22.30
2011,09,23,17,16,22.40
2011,09,23,17,17,22.40
2011,09,23,17,18,22.40
2011,09,23,17,19,22.40